Location: Bushrod
(6.3500°N, 10.7833°W)
Time: 12:15:48
(UTC+00:00)

ARIANE 5 R/B - Pass Details

Date: 17 September 2019
Orbit: 220 x 25471 km, 6.6° (Epoch: 20 October)

Event Time Altitude Azimuth Distance (km) Brightness Sun altitude
Rises 20:08:12 0° 272° (W) 2,237 7.0 -22.2°
Reaches altitude 10° 20:09:23 10° 272° (W) 1,671 5.9 -22.5°
Maximum altitude 20:12:36 89° 1° (N) 913 3.3 -23.3°
Enters shadow 20:15:36 40° 92° (E) 1,989 4.5 -24.1°
